Weather History for WBKL - December, 2013

Change the Weather History Date:

Monday, December 2, 2013

  Actual Average (WBSB) Record (WBSB)
Temperature  
Mean Temperature 84 °F -  
Max Temperature 89 °F 87 °F 89 °F (1999)
Min Temperature 78 °F 76 °F 73 °F (1998)
Cooling Degree Days 18    
Growing Degree Days 34 (Base 50)    
Moisture  
Dew Point 78 °F    
Average Humidity 84    
Maximum Humidity 94    
Minimum Humidity 68    
Precipitation  
Precipitation 0.35 in 0.40 in - ()
Sea Level Pressure  
Sea Level Pressure 29.76 in    
Wind  
Wind Speed 2 mph ()    
Max Wind Speed 6 mph    
Max Gust Speed -    
Visibility 7.3 miles    
Events Rain , Thunderstorm    
Averages and records for this station are not official NWS values.
T = Trace of Precipitation, MM = Missing Value Source: Averaged Metar Reports

Daily Weather History Graph

Daily Weather History Graph

Search for Another Location

Airport or City:

Trip Planner

Search our weather history database for the weather conditions in past years. The results will help you decide how hot, cold, wet, or windy it might be!

Date:

Astronomy

Dec. 02, 2013 Rise Set
Actual Time 6:13 AM MYT 6:03 PM MYT
Civil Twilight 5:50 AM MYT 6:25 PM MYT
Nautical Twilight 5:24 AM MYT 6:51 PM MYT
Astronomical Twilight 4:59 AM MYT 7:17 PM MYT
Moon 5:12 AM MYT (12/2) 5:26 PM MYT (12/2)
Length of Visible Light 12h 34m
Length of Day
11h 50m
Waning Crescent, 1% of the Moon is Illuminated
Dec 2
Waning Crescent
Dec 3
New
Dec 9
First Quarter
Dec 17
Full
Dec 25
Last Quarter

Hourly Weather History & Observations

Time (MYT) Temp. Heat Index Dew Point Humidity Pressure Visibility Wind Dir Wind Speed Gust Speed Precip Events Conditions
12:00 AM 82.4 °F 92.4 °F 78.8 °F 89% 29.80 in 6.2 mi ESE 2.3 mph - N/A   Mostly Cloudy
1:00 AM 80.6 °F 88.1 °F 78.8 °F 94% 29.77 in 6.2 mi East 2.3 mph - N/A   Mostly Cloudy
2:00 AM 80 °F - 78 °F 90% 29.76 in 9 mi Calm Calm - -   Scattered Clouds
2:00 AM 80.6 °F 87.1 °F 77.0 °F 89% 29.74 in 6.2 mi Calm Calm - N/A   Mostly Cloudy
3:00 AM 80.6 °F 87.1 °F 77.0 °F 89% 29.74 in 6.2 mi ENE 2.3 mph - N/A   Mostly Cloudy
4:00 AM 80.6 °F 87.1 °F 77.0 °F 89% 29.71 in 6.2 mi East 2.3 mph - N/A   Mostly Cloudy
5:00 AM 79 °F - 77 °F 90% 29.74 in 9 mi Calm Calm - -   Partly Cloudy
5:00 AM 78.8 °F - 77.0 °F 94% 29.74 in 6.2 mi Calm Calm - N/A   Mostly Cloudy
6:00 AM 78.8 °F - 77.0 °F 94% 29.74 in 6.2 mi Calm Calm - N/A   Mostly Cloudy
7:00 AM 78.8 °F - 77.0 °F 94% 29.77 in 6.2 mi Calm Calm - N/A   Mostly Cloudy
8:00 AM 84 °F - 79 °F 82% 29.80 in 17 mi Calm Calm - -   Scattered Clouds
8:00 AM 84.2 °F 96.1 °F 78.8 °F 84% 29.77 in 6.2 mi Calm Calm - N/A   Mostly Cloudy
9:00 AM 84.2 °F 96.1 °F 78.8 °F 84% 29.80 in 6.2 mi South 2.3 mph - N/A   Mostly Cloudy
10:00 AM 86.0 °F 96.9 °F 77.0 °F 74% 29.80 in 6.2 mi SSE 2.3 mph - N/A   Mostly Cloudy
11:00 AM 87 °F - 78 °F 68% 29.81 in 17 mi WSW 3.5 mph - -   Scattered Clouds
11:00 AM 87.8 °F 102.5 °F 78.8 °F 75% 29.80 in 6.2 mi WSW 3.5 mph - N/A   Mostly Cloudy
12:00 PM 89.6 °F 104.7 °F 78.8 °F 70% 29.77 in 6.2 mi South 2.3 mph - N/A   Mostly Cloudy
1:00 PM 87.8 °F 99.7 °F 77.0 °F 70% 29.74 in 6.2 mi SSW 2.3 mph - N/A   Mostly Cloudy
2:00 PM 88 °F - 80 °F 72% 29.72 in 17 mi West 5.8 mph - -   Scattered Clouds
2:00 PM 87.8 °F 104.9 °F 80.6 °F 79% 29.71 in 6.2 mi West 5.8 mph - N/A   Mostly Cloudy
3:00 PM 87.8 °F 102.5 °F 78.8 °F 75% 29.68 in 6.2 mi West 4.6 mph - N/A   Mostly Cloudy
4:00 PM 87.8 °F 102.5 °F 78.8 °F 75% 29.68 in 6.2 mi WNW 5.8 mph - N/A Thunderstorm Thunderstorm
5:00 PM 86 °F - 79 °F 74% 29.72 in 7 mi NNW 5.8 mph - - Thunderstorm Thunderstorm
5:00 PM 86.0 °F 99.3 °F 78.8 °F 79% 29.71 in 6.2 mi NNW 5.8 mph - N/A Thunderstorm Thunderstorm
6:00 PM 84.2 °F 96.1 °F 78.8 °F 84% 29.71 in 6.2 mi NNW 2.3 mph - N/A Thunderstorm Thunderstorm
7:00 PM 84.2 °F 94.1 °F 77.0 °F 79% 29.74 in 6.2 mi North 2.3 mph - N/A   Mostly Cloudy
8:00 PM 80 °F - 79 °F 94% 29.78 in 2 mi NNE 5.8 mph - - Rain Heavy Rain Showers
8:00 PM 80.6 °F 88.1 °F 78.8 °F 94% 29.77 in 1.9 mi NNE 5.8 mph - N/A Rain Rain Showers
9:00 PM 80.6 °F 88.1 °F 78.8 °F 94% 29.80 in 6.2 mi ENE 2.3 mph - N/A   Mostly Cloudy
10:00 PM 80.6 °F 88.1 °F 78.8 °F 94% 29.80 in 5.0 mi East 2.3 mph - N/A Rain Light Rain
11:00 PM 81 °F - 79 °F 90% 29.81 in 12 mi ENE 2.3 mph - - Rain Light Rain
11:00 PM 80.6 °F 88.1 °F 78.8 °F 94% 29.80 in 6.2 mi ENE 2.3 mph - N/A   Mostly Cloudy